BEIDOU-2 G3

Last updated on Thu Nov 21 2024 00:02:41 GMT+0000 (Coordinated Universal Time)

1 36590U 10024A 24325.63651419 -.00000134 00000+0 00000+0 0 9998 2 36590 3.1652 61.9856 0004418 316.0194 350.9448 1.00272198 53010
UTC large
Height (km)
Speed (km/s)
/
Latitude / Longitude
Inclination (degrees)
Orbital Period (minutes)
Azimuth
Elevation
Range (km)
Doppler Factor

Next 0 passes for location: London (51.5072 / 0.1276)

Sorry there are no passes over London.